Regional Weather Roundup
Issued by NWS Upton, NY

Current Version | Previous Version | Text Only | Print | Product List | Glossary On
Versions: 1 2 3 4 5 6 7 8 9 10 11 12 13 14 15 16 17 18 19 20 21 22 23 24 25 26 27 28 29 30 31 32 33 34 35 36 37 38 39 40 41 42 43 44 45 46 47 48 49 50
000
ASUS41 KOKX 231105
RWROKX

REGIONAL WEATHER ROUNDUP
NATIONAL WEATHER SERVICE NEW YORK NY
700 AM EDT SAT AUG 23 2014

NOTE: "FAIR" INDICATES FEW OR NO CLOUDS BELOW 12,000 FEET WITH NO
SIGNIFICANT WEATHER AND/OR OBSTRUCTIONS TO VISIBILITY.

NYZ071-072-176-178-NJZ106-104-231200-
NEW YORK CITY METRO AREA


CITY           SKY/WX    TMP DP  RH WIND       PRES   REMARKS
CENTRAL PARK   MOCLDY    68  60  75 NE8       30.09R
LAGUARDIA APRT MOCLDY    68  61  78 E10       30.06R
KENNEDY INTL   MOCLDY    67  61  81 NE8       30.07R
NEWARK/LIBERTY MOCLDY    68  60  75 NE6       30.06R
BRNX BOT. GARD   N/A     64  61  88 N8        30.08R
TETERBORO      PTCLDY    67  60  78 NE5       30.06R
$$

NYZ177-179-078>081-231200-
LONG ISLAND NEW YORK

CITY           SKY/WX    TMP DP  RH WIND       PRES   REMARKS
FARMINGDALE    PTCLDY    64  61  90 NE6       30.07R
ISLIP          MOCLDY    65  60  84 NE8       30.06R
SHIRLEY        PTCLDY    62  60  93 NW3       30.08R
WESTHAMPTON    PTCLDY    67  60  78 NE8       30.08R
MONTAUK POINT    N/A     66  62  87 NE9       30.08R
$$

NYZ052-065-067-231200-
HUDSON VALLEY

CITY           SKY/WX    TMP DP  RH WIND       PRES   REMARKS
WHITE PLAINS   MOCLDY    64  59  83 NE6       30.08R
NEWBURGH       MOCLDY    63  61  94 VRB5      30.10R
MONTGOMERY     PTCLDY    63  61  93 NE6       30.09R
POUGHKEEPSIE   CLOUDY    65  61  87 CALM      30.08R
ALBANY         CLOUDY    63  61  93 N3        30.11R
$$

NJZ001-105-106-008-010-013-015-019>022-104-231200-
NEW JERSEY

CITY           SKY/WX    TMP DP  RH WIND       PRES   REMARKS
NEWARK/LIBERTY MOCLDY    68  60  75 NE6       30.06R
TETERBORO      PTCLDY    67  60  78 NE5       30.06R
CALDWELL       PTCLDY    62  59  90 E3        30.08R
MORRISTOWN     PTCLDY    61  59  94 CALM      30.07R
SOMERVILLE     CLOUDY    66  58  75 NE3       30.05R
LINDEN         FAIR      71  63  75 E6        30.08R
SUSSEX         CLOUDY    67  63  87 CALM      30.09R
ANDOVER          N/A     63  61  93 E5        30.09R
TRENTON        MOCLDY    65  61  87 NE6       30.05R
MILLVILLE      MOCLDY    64  62  93 CALM      30.03R
ATLANTIC CITY  MOCLDY    64  64 100 NE5       30.02R
WRIGHTSTOWN    PTCLDY    63  62  95 N5        30.03R
TOMS RIVER     MOCLDY    68  63  83 CALM      30.04R
BELMAR         MOCLDY    68  59  73 E9        30.04S
$$

PAZ047>061-062-071-231200-
EASTERN PENNSYLVANIA

CITY           SKY/WX    TMP DP  RH WIND       PRES   REMARKS
PHILADELPHIA   MOCLDY    68  62  81 E7        30.04R
ALLENTOWN      LGT RAIN  64  60  87 NE6       30.07R FOG
SCRANTON       LGT RAIN  63  59  87 CALM      30.08R FOG
$$

CTZ002-004>006-009-010-012-RIZ004-006-007-MAZ004-011-015-231200-
SOUTHERN NEW ENGLAND
 IN CT

CITY           SKY/WX    TMP DP  RH WIND       PRES   REMARKS
BRADLEY INTL   CLOUDY    63  59  87 N7        30.10R
HARTFORD       CLOUDY    63  58  83 N9        30.10R
DANBURY        CLOUDY    64  59  83 NE8       30.10R
WTRBRY/OXFORD  CLOUDY    63  55  77 E9        30.11R
BRIDGEPORT     PTCLDY    66  60  81 NE10      30.08R
MERIDEN        MOCLDY    64  59  83 N6        30.09S
NEW HAVEN      MOCLDY    66  60  81 N10       30.08R
CHESTER        FAIR      63  61  94 N6        30.09S
GROTON         PTCLDY    63  60  90 N9        30.08R
WILLIMANTIC    MOCLDY    63  59  87 N6        30.11R

 IN RI

CITY           SKY/WX    TMP DP  RH WIND       PRES   REMARKS
PROVIDENCE     MOCLDY    64  59  83 N13       30.10R
BLOCK ISLAND   MOCLDY    64  59  82 NE13G20   30.08R
WESTERLY       MOCLDY    64  59  83 NE7       30.09R

 IN MA

CITY           SKY/WX    TMP DP  RH WIND       PRES   REMARKS
BOSTON         MOSUNNY   61  58  90 N7        30.12R
WORCESTER      CLOUDY    57  55  93 N9        30.13R
WESTFIELD      CLOUDY    62  58  86 N7        30.12R
PROVINCETOWN   CLOUDY    64  61  88 MISG      30.09S
NANTUCKET      CLOUDY    65  61  87 N14G21    30.06R
$$

ANZ330-335-338-340-345-350-353-355-231200-
COASTAL MARINE OBSERVATIONS


STATION/POSITION TIME  SKY/WX   TEMP    WIND        PRES    VSBY  WAVE
                                AIR SEA DIR/SP/G                  HT/PER
                 (UTC)          (F)     (DEG/KT/KT) (MB)    (MI)  (FT/S)
NY HARB ENTRANCE NOT AVBL
4S FIRE IS       NOT AVBL
23SW MTP         1100            67 70              1017.2          5/ 7
HUDSON CANYON    1100            70 72   60/ 17/ 21 1015.9          6/ 6
EXECUTION ROCKS  1100            69 73   70/ 16/ 19   N/A
WESTERN LI SOUND 1100            68      60/ 14/ 17   N/A           2/ 4
CENTRAL LI SOUND 1000            66 72   50/ 16/ 19   N/A           2/ 3
EASTERN LI SOUND 1000            65 68   40/ 10/ 12   N/A
ROBBINS REEF     1000            67      80/ 11/ 14   N/A
$$


>>>>>>>>>>>>>>>>>>>>>>>>>>>> KEY <<<<<<<<<<<<<<<<<<<<<<<<<<<
>                                                          <
>     SKY/WX - SKY CONDITION/PRESENT WEATHER               <
>     TMP    - TEMPERATURE IN FAHRENHEIT                   <
>     DP     - DEWPOINT IN FAHRENHEIT                      <
>     RH     - RELATIVE HUMIDITY IN PERCENT                <
>     WIND   - DIRECTION AND SPEED IN MPH                  <
>     PRES   - MEAN SEA LEVEL PRESSURE IN INCHES OF HG     <
>     WCI    - WIND CHILL INDEX                            <
>     VSB    - VISIBILITY IN MILES                         <
>     HX     - HEAT INDEX                                  <
>     TC     - TEMPERATURE IN CELSIUS                      <
>     VRB    - VARIABLE WIND DIRECTION                     <
>                                                          <
>>>>>>>>>>>>>>>>>>>>>>>>>>>> KEY <<<<<<<<<<<<<<<<<<<<<<<<<<<




USA.gov is the U.S. government's official web portal to all federal, state and local government web resources and services.